DW9493 Weather Reports


Display with metric or nautical units.
time (UTC)temp
F
wind
direction
speed
MPH
gust
MPH
rain 1hr
in
rain 24hr
in
rain mn
in
humidity
%
barometer
mb
20260506204127 31 108 0.0 0.0 0.00 0.00 0.00 81 1020.0
20260506203128 32 31 0.0 0.0 0.00 0.00 0.00 80 1020.1
20260506202127 31 47 0.0 0.0 0.00 0.00 0.00 81 1020.1
20260506201122 31 41 0.0 0.0 0.00 0.00 0.00 81 1020.1
20260506200602 31 6 0.0 0.0 0.00 0.00 0.00 82 1020.1
20260506195122 30 123 0.0 0.0 0.00 0.00 0.00 82 1020.1
20260506194553 30 83 0.0 0.0 0.00 0.00 0.00 83 1020.2
20260506193117 30 108 0.0 0.0 0.00 0.00 0.00 84 1020.3
20260506192117 29 56 0.0 0.0 0.00 0.00 0.00 84 1020.3
20260506191113 29 132 0.0 0.0 0.00 0.00 0.00 83 1020.3
20260506190110 29 101 0.0 0.0 0.00 0.00 0.00 81 1020.3
20260506185044 30 93 0.0 0.0 0.00 0.00 0.00 84 1020.3
20260506184533 30 23 0.0 0.0 0.00 0.00 0.00 82 1020.6
20260506183045 30 312 0.0 0.0 0.00 0.00 0.00 84 1020.6
20260506182043 30 318 0.0 0.0 0.00 0.00 0.00 86 1020.6
20260506181043 29 353 0.0 0.0 0.00 0.00 0.00 86 1020.6
20260506180044 29 132 0.0 0.0 0.00 0.00 0.00 85 1020.6
20260506175042 29 298 0.0 0.0 0.00 0.01 0.00 86 1020.5
20260506174041 28 52 0.0 0.0 0.00 0.01 0.00 88 1020.6
20260506173038 28 349 0.0 0.0 0.00 0.01 0.00 86 1020.7
20260506172036 27 37 0.0 0.0 0.00 0.01 0.00 90 1020.5
20260506171517 26 18 0.0 0.0 0.00 0.02 0.00 90 1020.5
20260506170032 26 314 0.0 0.0 0.00 0.02 0.00 88 1020.3
20260506165027 26 349 0.0 0.0 0.00 0.02 0.00 88 1020.2
20260506164029 26 79 0.0 0.0 0.00 0.03 0.00 89 1019.8
20260506163028 27 40 0.0 0.0 0.00 0.03 0.00 89 1019.6
20260506162029 26 60 0.0 0.0 0.00 0.03 0.00 89 1019.6
20260506161945 26 5 0.0 0.0 0.00 0.03 0.00 89 1019.3
20260506160939 26 25 0.0 0.0 0.00 0.03 0.00 90 1019.2
20260506155028 26 73 0.0 0.0 0.00 0.03 0.00 90 1019.6
20260506154022 26 10 0.0 0.0 0.00 0.03 0.00 91 1019.2
20260506153500 25 320 0.0 0.0 0.00 0.03 0.00 90 1019.2
20260506152017 25 339 0.0 0.0 0.00 0.03 0.00 90 1019.2
20260506151503 26 352 0.0 0.0 0.00 0.03 0.00 91 1019.1
20260506150017 26 326 0.0 0.0 0.00 0.03 0.00 92 1019.1
20260506145017 25 326 0.0 0.0 0.00 0.03 0.00 92 1019.1
20260506144018 25 326 0.0 0.0 0.00 0.03 0.00 92 1019.0
20260506143018 25 323 0.0 0.0 0.00 0.03 0.00 92 1019.0
20260506142015 25 44 0.0 0.0 0.00 0.03 0.00 93 1018.8
20260506141016 24 303 0.0 0.0 0.00 0.03 0.00 93 1018.7
20260506140016 24 321 0.0 0.0 0.00 0.03 0.00 93 1018.8
20260506135015 24 314 0.0 0.0 0.00 0.03 0.00 93 1018.6
20260506134017 24 313 0.0 0.0 0.00 0.03 0.00 93 1018.7
20260506133012 24 297 0.0 0.0 0.00 0.03 0.00 93 1018.6
20260506132013 24 319 0.0 0.0 0.00 0.03 0.00 93 1018.3
20260506130957 24 319 0.0 0.0 0.00 0.03 0.00 94 1018.3
20260506125958 24 319 0.0 0.0 0.00 0.03 0.00 94 1018.2
20260506124958 24 319 0.0 0.0 0.00 0.03 0.00 94 1017.9
20260506123957 24 319 0.0 0.0 0.00 0.03 0.00 94 1017.7
20260506122957 24 319 0.0 0.0 0.00 0.03 0.00 94 1017.6
20260506121958 23 356 0.0 0.0 0.00 0.03 0.00 94 1017.6
20260506121443 23 319 0.0 0.0 0.00 0.03 0.00 94 1017.4
20260506115956 23 326 0.0 0.0 0.00 0.03 0.00 94 1017.6
20260506115416 24 300 0.0 0.0 0.00 0.03 0.00 94 1017.4
20260506113927 24 32 0.0 0.0 0.00 0.03 0.00 94 1017.2
20260506112929 24 310 0.0 0.0 0.00 0.03 0.00 94 1017.2
20260506111927 24 322 0.0 0.0 0.00 0.03 0.00 94 1017.2
20260506110929 24 46 0.0 0.0 0.00 0.03 0.00 94 1017.2
20260506105924 24 46 0.0 0.0 0.00 0.03 0.00 94 1017.1
20260506104925 24 115 0.0 0.0 0.00 0.04 0.00 94 1017.1
20260506103925 24 72 0.0 0.0 0.00 0.04 0.00 94 1017.1
20260506102925 24 316 0.0 0.0 0.00 0.04 0.00 93 1017.2
20260506102401 24 335 0.0 0.0 0.00 0.04 0.00 93 1017.2
20260506100925 24 315 0.0 0.0 0.00 0.04 0.00 93 1017.2
20260506095925 24 4 0.0 0.0 0.00 0.04 0.00 93 1017.2
20260506095347 24 334 0.0 0.0 0.00 0.04 0.00 93 1017.3
20260506093911 24 308 0.0 0.0 0.00 0.04 0.00 93 1017.2
20260506092912 24 323 0.0 0.0 0.00 0.04 0.00 93 1017.1
20260506091911 24 330 0.0 0.0 0.00 0.04 0.00 93 1017.1
20260506090911 25 356 0.0 0.0 0.00 0.04 0.00 93 1017.1
20260506085912 25 354 0.0 0.0 0.00 0.04 0.00 94 1016.8
20260506084911 25 319 0.0 0.0 0.00 0.04 0.00 94 1017.1
20260506084348 25 311 0.0 0.0 0.00 0.04 0.00 94 1016.9
20260506082841 25 311 0.0 0.0 0.00 0.04 0.00 94 1016.9
20260506081842 25 315 0.0 0.0 0.00 0.04 0.00 94 1016.9
20260506080841 25 345 0.0 0.0 0.00 0.04 0.00 94 1017.1
20260506072840 26 326 0.0 0.0 0.00 0.04 0.00 94 1017.1
20260506071839 26 326 0.0 0.0 0.00 0.04 0.00 94 1017.3
20260506070840 26 326 0.0 0.0 0.00 0.04 0.00 94 1017.2
20260506061837 25 326 0.0 0.0 0.00 0.04 0.00 94 1016.7
20260506060837 25 245 0.0 0.0 0.00 0.04 0.00 94 1016.8
20260506051314 26 323 0.0 0.0 0.00 0.04 0.04 94 1016.6
20260506044831 26 323 0.0 0.0 0.00 0.04 0.04 94 1016.4
20260506043829 26 323 0.0 0.0 0.00 0.04 0.04 94 1016.3
20260506042826 26 323 0.0 0.0 0.00 0.04 0.04 94 1016.4
20260506041827 26 311 0.0 0.0 0.00 0.04 0.04 94 1016.6
20260506040823 26 311 0.0 0.0 0.00 0.04 0.04 94 1016.3
20260506035819 26 311 0.0 0.0 0.00 0.04 0.04 94 1016.3
20260506034820 26 311 0.0 0.0 0.00 0.04 0.04 94 1016.2
20260506033819 26 311 0.0 0.0 0.00 0.04 0.04 94 1016.3
20260506032817 26 311 0.0 0.0 0.00 0.06 0.04 94 1016.1
20260506031815 26 311 0.0 0.0 0.00 0.10 0.04 94 1015.9
20260506030815 26 310 0.0 0.0 0.00 0.14 0.04 94 1015.8
20260506030259 26 310 0.0 0.0 0.00 0.15 0.04 94 1015.6
20260506024803 26 311 0.0 0.0 0.00 0.15 0.04 94 1015.3
20260506023757 26 311 0.0 1.0 0.00 0.15 0.04 94 1015.3
20260506022755 26 311 0.0 0.0 0.00 0.15 0.04 94 1015.0
20260506021754 26 308 0.0 1.0 0.00 0.15 0.04 94 1015.2
20260506021711 26 308 0.0 1.0 0.00 0.15 0.04 93 1014.9
20260506015751 26 353 0.0 0.0 0.00 0.15 0.04 93 1014.5
20260506014752 27 323 0.0 0.0 0.00 0.15 0.04 93 1014.5
20260506014236 26 323 0.0 3.0 0.00 0.15 0.04 93 1014.5
20260506013209 27 309 0.0 0.0 0.00 0.15 0.04 93 1014.4
20260506011736 27 31 0.0 3.0 0.00 0.15 0.04 93 1014.5
20260506011211 27 96 0.0 3.0 0.00 0.15 0.04 93 1014.4
20260506005733 28 143 0.0 1.0 0.00 0.15 0.04 94 1014.4
20260506005227 27 316 0.0 1.0 0.00 0.15 0.04 94 1014.3
20260506003733 27 316 0.0 1.0 0.00 0.15 0.04 94 1014.2
20260506002729 27 257 0.0 3.0 0.00 0.15 0.04 93 1014.2
20260506002653 27 304 1.0 4.0 0.00 0.15 0.04 93 1014.0
20260506000723 27 326 2.0 7.0 0.00 0.15 0.04 92 1014.0
20260505235722 28 44 0.0 2.0 0.00 0.15 0.04 93 1013.9
20260505234724 29 63 0.0 2.0 0.00 0.15 0.04 93 1013.5
20260505234207 29 324 0.0 2.0 0.00 0.15 0.04 93 1013.8
20260505233212 29 307 1.0 7.0 0.00 0.15 0.04 93 1013.7
20260505231721 29 322 2.0 9.0 0.00 0.16 0.04 93 1013.8
20260505230721 30 337 2.0 8.0 0.00 0.16 0.04 93 1013.4
20260505225713 30 32 0.0 3.0 0.00 0.16 0.04 94 1013.3
20260505224714 30 34 0.0 5.0 0.00 0.16 0.04 94 1013.0
20260505223713 31 39 0.0 5.0 0.00 0.16 0.04 94 1013.4
20260505222713 31 335 1.0 6.0 0.00 0.16 0.04 94 1013.4
20260505221712 31 319 1.0 4.0 0.00 0.16 0.04 94 1013.0
20260505220714 31 29 1.0 5.0 0.00 0.16 0.04 94 1012.8
20260505215714 31 110 1.0 6.0 0.00 0.16 0.04 93 1012.8
20260505214711 32 106 1.0 5.0 0.00 0.16 0.04 93 1012.9
20260505213712 32 41 1.0 8.0 0.00 0.16 0.04 93 1013.0
20260505212711 32 27 1.0 5.0 0.00 0.16 0.04 92 1013.0
20260505211711 33 64 0.0 4.0 0.00 0.16 0.04 93 1013.0
20260505210709 32 59 0.0 3.0 0.00 0.16 0.04 93 1013.2
20260505210144 32 307 0.0 7.0 0.00 0.16 0.04 93 1013.4
20260505205149 32 34 2.0 6.0 0.00 0.16 0.04 92 1013.5